EW1379 Weather Reports


Display with metric or nautical units.
time (UTC)temp
F
wind
direction
speed
MPH
gust
MPH
rain 1hr
in
rain 24hr
in
rain mn
in
humidity
%
barometer
mb
20260507201018 52 348 9.0 13.0 0.00 0.05 0.00 61 1009.9
20260507200528 52 348 6.0 11.0 0.00 0.05 0.00 59 1009.9
20260507200055 52 331 8.0 13.0 0.00 0.05 0.00 60 1009.8
20260507195524 52 22 8.0 13.0 0.00 0.05 0.00 60 1009.9
20260507195045 52 311 5.0 13.0 0.00 0.05 0.00 59 1009.9
20260507194519 52 346 8.0 13.0 0.00 0.05 0.00 62 1009.9
20260507194022 52 9 6.0 13.0 0.00 0.05 0.00 59 1009.8
20260507193520 53 347 9.0 13.0 0.00 0.05 0.00 59 1010.0
20260507193041 54 9 8.0 14.0 0.00 0.05 0.00 58 1010.0
20260507192528 54 298 8.0 14.0 0.00 0.05 0.00 60 1009.9
20260507192033 54 346 6.0 11.0 0.00 0.05 0.00 56 1009.9
20260507191600 55 302 4.0 9.0 0.00 0.05 0.00 58 1010.0
20260507191022 55 343 6.0 9.0 0.00 0.05 0.00 54 1010.0
20260507190528 55 303 3.0 7.0 0.00 0.05 0.00 57 1010.0
20260507190033 55 310 3.0 8.0 0.00 0.05 0.00 57 1010.1
20260507185524 55 261 3.0 8.0 0.00 0.05 0.00 57 1010.1
20260507185050 54 302 4.0 8.0 0.00 0.05 0.00 54 1010.1
20260507184529 55 329 3.0 8.0 0.00 0.05 0.00 54 1010.1
20260507184041 55 298 2.0 6.0 0.00 0.05 0.00 55 1010.2
20260507183519 54 263 3.0 8.0 0.00 0.05 0.00 53 1010.2
20260507183034 54 335 3.0 9.0 0.00 0.05 0.00 55 1010.2
20260507182519 54 310 5.0 10.0 0.00 0.05 0.00 58 1010.4
20260507182036 54 323 5.0 11.0 0.00 0.05 0.00 56 1010.4
20260507181524 54 331 7.0 11.0 0.00 0.05 0.00 53 1010.3
20260507181031 54 334 1.0 6.0 0.00 0.05 0.00 54 1010.3
20260507180541 54 264 3.0 13.0 0.00 0.05 0.00 53 1010.4
20260507180030 54 304 5.0 13.0 0.00 0.05 0.00 52 1010.4
20260507175519 54 283 5.0 11.0 0.00 0.05 0.00 51 1010.4
20260507175038 55 344 5.0 12.0 0.00 0.05 0.00 53 1010.5
20260507174517 55 257 4.0 12.0 0.00 0.05 0.00 54 1010.5
20260507174041 55 280 2.0 7.0 0.00 0.05 0.00 50 1010.5
20260507173546 56 186 2.0 7.0 0.00 0.05 0.00 48 1010.5
20260507173022 55 286 4.0 10.0 0.00 0.05 0.00 52 1010.5
20260507172531 55 251 4.0 9.0 0.00 0.05 0.00 51 1010.6
20260507172027 55 230 5.0 9.0 0.00 0.05 0.00 52 1010.6
20260507171533 55 266 3.0 10.0 0.00 0.05 0.00 53 1010.7
20260507171041 55 263 3.0 10.0 0.00 0.05 0.00 57 1010.8
20260507170526 54 301 6.0 13.0 0.00 0.05 0.00 54 1010.9
20260507170044 54 308 6.0 13.0 0.00 0.05 0.00 57 1010.9
20260507165550 54 273 4.0 11.0 0.00 0.05 0.00 53 1010.9
20260507165017 54 338 6.0 10.0 0.00 0.05 0.00 55 1010.9
20260507164524 54 277 6.0 10.0 0.00 0.05 0.00 53 1010.9
20260507164037 54 248 4.0 9.0 0.00 0.05 0.00 56 1011.1
20260507163542 54 284 3.0 8.0 0.00 0.05 0.00 55 1011.1
20260507163031 54 251 3.0 10.0 0.00 0.05 0.00 58 1011.2
20260507162519 54 255 5.0 10.0 0.00 0.05 0.00 58 1011.2
20260507162022 54 262 3.0 10.0 0.00 0.05 0.00 62 1011.3
20260507161542 53 280 4.0 10.0 0.00 0.05 0.00 57 1011.3
20260507161028 53 239 2.0 11.0 0.00 0.05 0.00 59 1011.4
20260507160543 52 269 5.0 11.0 0.00 0.05 0.00 60 1011.4
20260507160045 52 308 4.0 11.0 0.00 0.05 0.00 65 1011.4
20260507155532 51 16 2.0 6.0 0.00 0.05 0.00 62 1011.6
20260507155044 51 335 3.0 8.0 0.00 0.05 0.00 63 1011.6
20260507154529 51 360 5.0 8.0 0.00 0.05 0.00 63 1011.6
20260507154029 51 325 0.0 6.0 0.00 0.05 0.00 61 1011.7
20260507153532 51 355 3.0 6.0 0.00 0.05 0.00 64 1011.9
20260507153117 52 360 0.0 6.0 0.00 0.05 0.00 61 1011.9
20260507152606 52 292 0.0 2.0 0.00 0.05 0.00 64 1012.0
20260507152031 52 159 0.0 4.0 0.00 0.05 0.00 62 1012.0
20260507151533 52 175 2.0 5.0 0.00 0.05 0.00 61 1012.0
20260507151059 51 196 1.0 5.0 0.00 0.05 0.00 61 1012.0
20260507150033 51 219 2.0 6.0 0.00 0.05 0.00 62 1012.1
20260507145529 51 92 2.0 7.0 0.00 0.06 0.00 63 1012.0
20260507145038 51 341 2.0 7.0 0.00 0.06 0.00 65 1012.1
20260507144720 51 267 2.0 3.0 0.00 0.06 0.00 66 1012.1
20260507143049 49 345 1.0 4.0 0.00 0.06 0.00 68 1012.3
20260507142621 49 350 1.0 4.0 0.00 0.06 0.00 68 1012.3
20260507142549 49 350 1.0 4.0 0.00 0.06 0.00 68 1012.3
20260507142023 48 344 0.0 6.0 0.00 0.06 0.00 68 1012.3
20260507141552 47 340 0.0 6.0 0.00 0.06 0.00 69 1012.4
20260507141040 47 334 1.0 5.0 0.00 0.06 0.00 70 1012.4
20260507140543 46 327 0.0 5.0 0.00 0.06 0.00 71 1012.4
20260507140048 45 343 1.0 3.0 0.00 0.06 0.00 71 1012.5
20260507135536 45 342 1.0 4.0 0.00 0.07 0.00 73 1012.6
20260507135031 45 344 1.0 4.0 0.00 0.07 0.00 73 1012.6
20260507134546 44 355 1.0 5.0 0.00 0.07 0.00 73 1012.7
20260507134037 44 342 2.0 6.0 0.00 0.07 0.00 72 1012.8
20260507133534 44 350 3.0 6.0 0.00 0.07 0.00 71 1012.8
20260507133037 45 316 3.0 9.0 0.00 0.07 0.00 70 1012.9
20260507132525 45 318 3.0 9.0 0.00 0.07 0.00 69 1012.8
20260507132029 45 317 2.0 6.0 0.00 0.07 0.00 70 1012.8
20260507131543 45 274 3.0 6.0 0.00 0.07 0.00 69 1012.7
20260507131023 45 343 2.0 6.0 0.00 0.07 0.00 69 1012.7
20260507130543 45 263 2.0 6.0 0.00 0.07 0.00 71 1012.7
20260507130037 44 323 2.0 12.0 0.00 0.07 0.00 72 1012.7
20260507125540 44 341 6.0 12.0 0.00 0.09 0.00 75 1012.6
20260507125019 44 347 2.0 4.0 0.00 0.09 0.00 80 1012.7
20260507124529 44 329 2.0 5.0 0.00 0.09 0.00 82 1012.7
20260507124053 44 310 1.0 2.0 0.00 0.09 0.00 85 1012.7
20260507123524 43 286 0.0 2.0 0.00 0.09 0.00 88 1012.5
20260507123031 43 277 0.0 3.0 0.00 0.09 0.00 89 1012.6
20260507122544 43 277 1.0 3.0 0.00 0.09 0.00 90 1012.6
20260507122111 43 277 0.0 4.0 0.00 0.09 0.00 90 1012.7
20260507121027 43 287 1.0 4.0 0.00 0.09 0.00 93 1012.7
20260507120531 42 103 0.0 3.0 0.00 0.09 0.00 93 1012.4
20260507120033 42 103 2.0 3.0 0.00 0.09 0.00 93 1012.2
20260507115524 42 103 0.0 0.0 0.00 0.10 0.00 94 1012.3
20260507115028 41 98 0.0 0.0 0.00 0.10 0.00 93 1012.3
20260507114601 40 97 0.0 0.0 0.00 0.10 0.00 93 1012.4
20260507114045 39 119 0.0 0.0 0.00 0.10 0.00 93 1012.4
20260507113533 38 119 0.0 0.0 0.00 0.10 0.00 93 1012.5
20260507113016 38 119 0.0 0.0 0.00 0.10 0.00 92 1012.5
20260507112546 37 119 0.0 0.0 0.00 0.10 0.00 92 1012.6
20260507112024 37 112 0.0 0.0 0.00 0.10 0.00 92 1012.6
20260507111545 37 115 0.0 0.0 0.00 0.10 0.00 92 1012.5
20260507111042 37 115 0.0 0.0 0.00 0.10 0.00 91 1012.3
20260507110525 37 174 0.0 1.0 0.00 0.10 0.00 91 1012.2
20260507110032 36 218 0.0 1.0 0.00 0.10 0.00 91 1012.0
20260507105521 36 223 0.0 0.0 0.00 0.15 0.00 91 1012.2
20260507105035 36 223 0.0 0.0 0.00 0.15 0.00 91 1012.1
20260507104542 36 223 0.0 0.0 0.00 0.15 0.00 91 1012.0
20260507104029 36 221 0.0 0.0 0.00 0.15 0.00 91 1011.8
20260507103530 36 221 0.0 0.0 0.00 0.15 0.00 90 1011.8
20260507103037 36 219 0.0 0.0 0.00 0.15 0.00 90 1011.9
20260507102537 36 223 0.0 0.0 0.00 0.15 0.00 90 1012.0
20260507102040 36 223 0.0 0.0 0.00 0.15 0.00 90 1011.9
20260507101525 36 223 0.0 0.0 0.00 0.15 0.00 90 1012.1
20260507101031 36 223 0.0 0.0 0.00 0.15 0.00 90 1012.0
20260507100536 36 223 0.0 0.0 0.00 0.15 0.00 89 1012.0
20260507100031 36 258 0.0 0.0 0.00 0.15 0.00 89 1012.1
20260507095534 36 258 0.0 0.0 0.00 0.20 0.00 90 1011.9
20260507095107 36 258 0.0 0.0 0.00 0.20 0.00 89 1011.9
20260507094517 36 258 0.0 0.0 0.00 0.20 0.00 89 1011.9
20260507094018 37 258 0.0 0.0 0.00 0.20 0.00 89 1012.0
20260507093527 37 258 0.0 0.0 0.00 0.20 0.00 89 1011.8
20260507093015 37 258 0.0 0.0 0.00 0.20 0.00 89 1011.6
20260507092527 37 258 0.0 0.0 0.00 0.20 0.00 89 1011.7
20260507092034 37 258 0.0 0.0 0.00 0.20 0.00 89 1011.9
20260507091524 37 258 0.0 0.0 0.00 0.20 0.00 89 1012.0
20260507091018 37 258 0.0 0.0 0.00 0.20 0.00 89 1012.0
20260507090536 37 258 0.0 0.0 0.00 0.20 0.00 88 1012.0
20260507090038 37 258 0.0 0.0 0.00 0.20 0.00 88 1011.9
20260507085537 38 258 0.0 0.0 0.00 0.28 0.00 88 1012.0
20260507085051 38 258 0.0 0.0 0.00 0.28 0.00 88 1012.0
20260507084543 38 258 0.0 0.0 0.00 0.28 0.00 88 1012.0
20260507084050 38 258 0.0 0.0 0.00 0.28 0.00 88 1012.0
20260507083534 38 258 0.0 0.0 0.00 0.28 0.00 88 1012.0
20260507083029 39 258 0.0 0.0 0.00 0.28 0.00 88 1011.9
20260507082535 39 258 0.0 0.0 0.00 0.28 0.00 87 1011.9
20260507082018 39 258 0.0 0.0 0.00 0.28 0.00 87 1011.7
20260507081548 39 258 0.0 0.0 0.00 0.28 0.00 87 1011.9
20260507081038 39 269 0.0 0.0 0.00 0.28 0.00 87 1012.0
20260507080528 40 269 0.0 0.0 0.00 0.28 0.00 87 1012.0
20260507080023 40 269 0.0 0.0 0.00 0.28 0.00 87 1012.0
20260507075528 40 269 0.0 0.0 0.00 0.37 0.00 87 1012.0
20260507075038 40 269 0.0 0.0 0.00 0.37 0.00 87 1012.0
20260507074529 40 269 0.0 0.0 0.00 0.37 0.00 87 1012.1
20260507074042 40 269 0.0 0.0 0.00 0.37 0.00 87 1012.2
20260507073533 41 269 0.0 0.0 0.00 0.37 0.00 87 1012.2
20260507073024 41 269 0.0 0.0 0.00 0.37 0.00 87 1012.3
20260507072537 41 269 0.0 0.0 0.00 0.37 0.00 87 1012.2
20260507072030 41 269 0.0 0.0 0.00 0.37 0.00 87 1012.2
20260507071549 41 269 0.0 0.0 0.00 0.37 0.00 88 1012.1
20260507071025 41 269 0.0 0.0 0.00 0.37 0.00 88 1012.1
20260507070538 42 269 0.0 0.0 0.00 0.37 0.00 88 1012.1
20260507070027 42 269 0.0 0.0 0.00 0.37 0.00 88 1012.0
20260507065543 42 269 0.0 0.0 0.00 0.49 0.00 88 1012.0
20260507065025 42 269 0.0 0.0 0.00 0.49 0.00 88 1012.0
20260507064518 42 269 0.0 0.0 0.00 0.49 0.00 88 1012.0
20260507064029 42 269 0.0 0.0 0.00 0.49 0.00 89 1012.0
20260507063521 42 269 0.0 0.0 0.00 0.49 0.00 89 1011.9
20260507063031 42 269 0.0 0.0 0.00 0.49 0.00 89 1011.8
20260507062521 42 269 0.0 0.0 0.00 0.49 0.00 89 1011.7
20260507062032 42 269 0.0 0.0 0.00 0.49 0.00 89 1011.9
20260507061524 42 269 0.0 0.0 0.00 0.49 0.00 90 1011.9
20260507061036 43 269 0.0 0.0 0.00 0.49 0.00 90 1012.1
20260507060536 43 269 0.0 0.0 0.00 0.49 0.00 90 1012.2
20260507060022 42 269 0.0 0.0 0.00 0.49 0.00 90 1012.3
20260507055541 42 269 0.0 0.0 0.00 0.55 0.00 90 1012.3
20260507055056 42 269 0.0 2.0 0.00 0.55 0.00 90 1012.3
20260507054524 43 269 0.0 2.0 0.00 0.55 0.00 91 1012.3
20260507054043 43 267 0.0 3.0 0.00 0.55 0.00 91 1012.4
20260507053522 43 286 0.0 4.0 0.00 0.55 0.00 91 1012.4
20260507053050 43 290 2.0 4.0 0.00 0.55 0.00 91 1012.4
20260507052526 43 280 1.0 6.0 0.00 0.55 0.00 91 1012.5
20260507052052 43 274 2.0 6.0 0.00 0.55 0.00 91 1012.5
20260507051523 43 261 0.0 4.0 0.00 0.55 0.00 92 1012.5
20260507051046 43 284 0.0 3.0 0.00 0.55 0.00 92 1012.5
20260507050516 43 283 0.0 3.0 0.00 0.55 0.00 92 1012.6
20260507050048 43 269 0.0 0.0 0.00 0.55 0.00 92 1012.6
20260507045523 43 273 0.0 4.0 0.00 0.65 0.00 92 1012.6
20260507045050 43 277 2.0 4.0 0.00 0.65 0.00 92 1012.6
20260507044522 43 265 0.0 3.0 0.00 0.65 0.00 92 1012.5
20260507044049 43 275 0.0 4.0 0.00 0.65 0.00 92 1012.5
20260507043543 43 272 2.0 4.0 0.00 0.65 0.00 92 1012.5
20260507043023 43 287 1.0 4.0 0.00 0.65 0.00 92 1012.4
20260507042544 43 265 2.0 4.0 0.00 0.65 0.00 92 1012.3
20260507042026 43 261 1.0 4.0 0.00 0.65 0.00 92 1012.4
20260507041516 43 258 1.0 4.0 0.00 0.65 0.00 92 1012.4
20260507041032 43 254 0.0 4.0 0.00 0.65 0.00 92 1012.4
20260507040525 43 276 0.0 5.0 0.00 0.65 0.00 92 1012.4
20260507040036 43 269 0.0 5.0 0.00 0.65 0.00 92 1012.3
20260507035526 43 267 0.0 4.0 0.00 0.73 0.65 92 1012.3
20260507035038 43 267 2.0 4.0 0.00 0.73 0.65 92 1012.2
20260507034532 43 279 2.0 5.0 0.00 0.73 0.65 92 1012.3
20260507034035 43 257 2.0 6.0 0.00 0.73 0.65 92 1012.2
20260507033526 44 271 3.0 6.0 0.00 0.73 0.65 92 1012.1
20260507033050 44 285 1.0 4.0 0.00 0.73 0.65 92 1012.1
20260507032526 44 285 2.0 4.0 0.00 0.73 0.65 92 1012.1
20260507032046 44 274 1.0 3.0 0.00 0.73 0.65 92 1012.0
20260507031521 44 264 0.0 4.0 0.00 0.73 0.65 92 1012.0
20260507031059 44 264 2.0 4.0 0.00 0.73 0.65 92 1012.0
20260507030524 44 260 2.0 3.0 0.00 0.73 0.65 92 1011.9
20260507030017 44 267 0.0 4.0 0.00 0.81 0.65 92 1011.9
20260507025548 44 267 1.0 4.0 0.00 0.81 0.65 92 1011.9
20260507025037 44 274 1.0 4.0 0.00 0.81 0.65 92 1011.9
20260507024601 44 268 0.0 5.0 0.00 0.81 0.65 92 1012.0
20260507024028 44 269 3.0 5.0 0.00 0.81 0.65 92 1011.9
20260507023534 44 265 0.0 4.0 0.00 0.81 0.65 92 1011.9
20260507023046 44 277 2.0 4.0 0.00 0.81 0.65 92 1011.9
20260507022527 44 269 2.0 4.0 0.00 0.81 0.65 92 1012.0
20260507022033 44 277 0.0 3.0 0.00 0.81 0.65 91 1012.0
20260507021544 44 277 1.0 3.0 0.00 0.81 0.65 91 1012.1
20260507021021 44 267 0.0 5.0 0.00 0.81 0.65 91 1012.1
20260507020527 44 268 1.0 5.0 0.00 0.81 0.65 91 1012.2
20260507020021 44 269 1.0 5.0 0.00 0.81 0.65 91 1012.1
20260507015540 44 243 1.0 5.0 0.00 0.84 0.65 91 1012.2
20260507015028 44 283 1.0 5.0 0.00 0.84 0.65 91 1012.0
20260507014531 44 290 1.0 5.0 0.01 0.84 0.65 91 1011.9
20260507014020 44 294 2.0 7.0 0.01 0.84 0.65 91 1011.9
20260507013541 44 321 2.0 7.0 0.01 0.84 0.65 91 1012.0
20260507013029 45 293 2.0 8.0 0.01 0.84 0.65 91 1012.1
20260507012538 45 298 4.0 8.0 0.01 0.84 0.65 90 1012.1
20260507012114 45 296 3.0 7.0 0.01 0.84 0.65 90 1012.0
20260507011604 45 289 0.0 4.0 0.02 0.84 0.65 90 1011.9
20260507011038 45 277 0.0 4.0 0.03 0.84 0.65 90 1011.8
20260507010542 45 317 2.0 8.0 0.03 0.84 0.65 89 1011.7
20260507010035 45 306 3.0 8.0 0.04 0.84 0.65 89 1011.5
20260507005039 47 329 5.0 12.0 0.05 0.92 0.65 89 1011.2
20260507004547 47 277 2.0 4.0 0.04 0.91 0.64 90 1011.2
20260507004037 47 342 2.0 4.0 0.04 0.91 0.64 90 1010.9
20260507003620 48 355 0.0 3.0 0.04 0.91 0.64 89 1010.8
20260507003025 48 336 1.0 4.0 0.04 0.91 0.64 89 1010.7
20260507002554 48 336 0.0 5.0 0.04 0.91 0.64 89 1010.8
20260507002112 48 343 3.0 5.0 0.04 0.91 0.64 88 1010.8
20260507001520 48 277 1.0 6.0 0.02 0.89 0.62 87 1010.8
20260507001109 49 340 2.0 5.0 0.02 0.89 0.62 87 1010.6
20260507000535 49 5 2.0 3.0 0.02 0.89 0.62 86 1010.5
20260507000038 49 5 1.0 3.0 0.01 0.88 0.61 86 1010.5
20260506235550 49 13 2.0 3.0 0.00 0.96 0.60 86 1010.5
20260506235033 49 69 2.0 3.0 0.00 0.96 0.60 85 1010.4
20260506234533 49 69 0.0 1.0 0.00 0.96 0.60 85 1010.3
20260506233537 49 58 0.0 1.0 0.00 0.96 0.60 85 1010.0
20260506232522 49 339 0.0 0.0 0.00 0.96 0.60 85 1010.1
20260506232017 49 339 0.0 0.0 0.00 0.96 0.60 85 1010.1
20260506231551 49 339 0.0 0.0 0.00 0.96 0.60 85 1010.1
20260506231056 49 339 0.0 0.0 0.00 0.96 0.60 84 1010.1
20260506230553 49 339 0.0 0.0 0.00 0.96 0.60 84 1010.0
20260506230029 49 339 0.0 0.0 0.00 0.96 0.60 84 1010.0
20260506225544 49 329 0.0 0.0 0.00 0.96 0.60 84 1009.9
20260506224748 49 329 0.0 0.0 0.00 0.96 0.60 84 1009.8
20260506224106 49 321 0.0 0.0 0.00 0.96 0.60 84 1009.8
20260506223605 49 321 0.0 1.0 0.00 0.96 0.60 84 1009.9
20260506223024 49 313 0.0 3.0 0.00 0.96 0.60 84 1009.8
20260506222048 49 311 0.0 2.0 0.00 0.96 0.60 84 1009.8
20260506221529 49 309 0.0 0.0 0.00 0.96 0.60 84 1009.7
20260506221042 49 308 0.0 0.0 0.00 0.96 0.60 84 1009.6
20260506220551 49 308 0.0 0.0 0.00 0.96 0.60 84 1009.6
20260506220127 49 308 0.0 0.0 0.00 0.96 0.60 84 1009.7
20260506215538 49 308 0.0 0.0 0.00 0.96 0.60 83 1009.6
20260506215037 49 306 0.0 0.0 0.00 0.96 0.60 83 1009.6
20260506214545 49 306 0.0 2.0 0.00 0.96 0.60 83 1009.8
20260506213533 49 306 0.0 3.0 0.00 0.96 0.60 82 1010.0
20260506213037 49 326 0.0 3.0 0.00 0.96 0.60 82 1009.9
20260506212526 49 336 2.0 3.0 0.00 0.96 0.60 82 1009.8
20260506212046 49 336 0.0 0.0 0.00 0.96 0.60 82 1009.7
20260506211551 49 336 0.0 4.0 0.00 0.96 0.60 82 1009.7
20260506211036 49 336 0.0 4.0 0.00 0.96 0.60 82 1009.7
20260506210627 49 336 0.0 3.0 0.00 0.96 0.60 83 1009.7
20260506210023 49 336 0.0 0.0 0.00 0.96 0.60 83 1009.7
20260506205544 49 336 0.0 0.0 0.00 0.96 0.60 83 1009.6
20260506205022 49 338 0.0 5.0 0.00 0.96 0.60 83 1009.5
20260506204049 49 308 0.0 0.0 0.00 0.96 0.60 84 1009.5
20260506203641 49 273 0.0 2.0 0.00 0.96 0.60 84 1009.7
20260506203027 48 273 0.0 5.0 0.00 0.96 0.60 83 1009.8
20260506202538 48 274 2.0 5.0 0.00 0.96 0.60 84 1009.8
20260506202035 48 277 0.0 5.0 0.00 0.96 0.60 85 1009.7
20260506201557 48 280 1.0 5.0 0.00 0.96 0.60 85 1009.7